Location: Monrovia
(34.7865°N, 86.7139°W)
Time: 22:04:14
(UTC+00:00)

Cosmos 2034 Rocket - Pass Details

Date: 14 July 2020
Orbit: 959 x 1000 km, 82.9° (Epoch: 08 August)

Event Time Altitude Azimuth Distance (km) Brightness Sun altitude
Exits shadow 09:08:07 13° 181° (S) 2,471 5.7 -17.0°
Maximum altitude 09:13:41 82° 94° (E) 972 4.0 -16.2°
Drops below altitude 10° 09:19:52 10° 8° (N) 2,701 7.0 -15.2°
Sets 09:22:22 0° 8° (N) 3,654 7.8 -14.9°
